Theta_e
340 338 340 339 339 333 337 342 339 340 341 343 344 343 342 341 342 339 338 339 338 338 335 336 337 334 336 336 336 335 326 329 336 336 331 326 326 327 329 328 327 329 330
340 340 339 340 342 342 343 341 340 342 343 343 344 345 344 342 341 341 342 340 339 339 337 337 334 334 333 333 329 326 325 328 327 325 324 326 330 331 331 331 329 327 328
339 339 339 341 344 344 339 341 341 342 343 344 343 344 342 343 340 341 341 341 341 340 339 338 339 338 330 326 325 326 326 325 324 324 325 326 331 332 334 329 332 334 334
340 340 340 342 343 343 343 343 344 344 344 343 342 343 343 341 341 341 342 343 342 340 339 337 338 339 336 328 328 333 332 332 331 329 326 324 324 325 325 326 332 335 336
340 340 340 342 342 340 342 342 343 345 344 343 342 345 344 342 341 341 342 336 335 342 342 338 338 338 340 337 334 332 331 327 326 324 325 326 329 331 333 333 332 333 334
341 340 340 341 342 340 342 342 343 345 344 345 342 343 344 343 344 342 341 334 335 335 340 339 336 338 339 339 339 338 334 331 328 324 327 329 329 328 329 330 331 334 334
341 341 340 340 342 342 341 343 343 342 342 344 339 342 345 345 342 343 342 341 338 335 335 335 340 342 340 338 339 338 339 332 331 326 327 328 328 328 328 329 333 335 335
343 342 341 340 341 343 342 343 343 341 341 343 344 343 342 343 342 342 343 342 342 340 335 334 340 338 342 340 339 339 338 339 333 330 329 328 328 327 329 334 334 335 336
343 341 341 341 341 342 342 343 343 340 343 343 344 344 344 343 343 342 343 342 342 341 341 336 336 338 333 341 342 339 338 338 334 330 329 328 328 333 334 335 335 335 335
345 344 341 341 341 342 341 342 344 341 343 343 344 343 343 342 344 343 343 344 341 342 341 342 342 339 336 336 335 338 338 335 330 327 329 333 334 333 334 335 336 337 335
342 341 341 341 341 342 341 343 343 344 345 344 344 344 344 344 343 345 346 344 344 342 342 341 342 342 342 335 335 333 332 331 333 333 334 334 332 331 332 333 338 340 338
343 341 341 341 341 341 341 344 343 342 343 343 345 344 345 345 345 344 345 344 344 346 344 344 342 341 341 341 341 338 337 336 339 341 339 342 340 336 331 330 334 335 335
344 342 341 341 341 341 340 344 343 340 342 341 342 342 341 344 344 343 345 347 346 346 345 345 345 343 342 341 342 344 343 343 343 343 343 344 342 338 335 333 333 333 333
343 343 341 341 341 341 339 342 343 342 342 340 340 341 340 343 342 341 343 346 347 345 340 345 345 345 345 345 344 344 345 344 343 344 345 344 345 346 345 344 342 340 339
344 344 343 341 339 340 338 338 340 339 340 341 338 341 343 343 342 342 342 342 346 346 347 346 343 341 341 342 342 346 345 345 344 344 345 346 345 346 347 347 347 347 345
344 344 343 342 340 338 335 335 336 339 340 342 344 339 341 344 344 342 345 342 344 344 346 344 344 342 341 342 341 343 345 345 345 346 346 346 347 347 347 347 347 346 345
343 344 344 341 341 340 337 339 340 338 340 343 343 342 340 339 340 344 345 345 343 344 345 346 344 344 341 344 343 342 343 344 344 345 345 346 346 347 347 348 348 347 345
345 343 344 343 339 339 340 340 339 338 340 340 340 342 344 342 339 339 346 343 343 343 344 345 347 345 345 345 345 344 343 346 346 346 346 347 348 348 348 347 347 346 348
347 346 344 343 343 340 339 340 342 342 344 345 345 344 344 344 339 344 344 345 345 345 343 343 346 344 345 345 345 346 346 346 346 347 347 348 348 347 347 347 346 346 348
347 347 346 347 346 344 343 343 343 343 344 344 345 344 344 343 341 340 340 342 345 346 346 345 347 348 345 346 341 344 344 346 347 349 347 348 346 345 345 343 346 347 348
342 347 348 348 347 347 347 344 344 344 344 345 346 344 344 343 343 341 343 344 342 344 348 349 350 349 349 349 345 348 342 341 344 349 351 351 346 346 346 347 348 345 345
326 328 333 339 346 347 346 347 346 344 345 346 345 345 344 344 344 344 341 344 343 341 344 348 348 349 350 346 348 347 346 344 344 348 346 348 350 352 349 349 347 346 345
331 330 329 328 327 334 344 346 345 345 345 345 344 345 346 346 345 345 343 342 343 343 343 344 345 348 348 345 346 344 345 343 345 351 346 350 348 349 350 349 347 346 346
331 331 330 329 329 328 328 334 341 343 345 345 346 346 345 345 345 345 344 341 340 343 342 342 345 344 343 343 343 344 344 346 347 345 345 349 348 348 347 342 339 338 338
329 330 329 329 329 329 330 329 329 331 336 339 343 346 345 344 343 342 345 344 340 345 344 340 342 343 343 343 344 344 346 349 349 350 350 347 346 347 345 341 337 341 343
327 327 327 328 329 329 328 329 329 330 329 330 335 338 344 341 332 335 345 344 345 345 345 342 341 342 344 343 345 345 345 345 348 348 350 347 346 349 349 347 343 342 343
Wind_Speed
15 11 7 5 4 5 6 6 6 7 7 5 4 4 6 8 9 8 11 11 13 11 15 16 30 29 26 24 22 20 19 17 14 13 12 9 8 6 5 4 4 4 4
8 10 6 5 5 5 7 6 7 6 6 6 6 6 8 8 8 8 9 12 12 13 16 19 28 27 26 26 25 22 21 19 16 14 12 10 9 7 6 6 5 6 7
10 10 8 7 6 5 4 5 7 6 3 4 7 8 8 8 7 6 6 8 11 13 16 20 23 29 29 27 26 24 22 20 18 16 13 12 10 8 8 8 7 8 8
12 12 11 9 6 5 6 5 6 7 5 7 6 8 8 8 7 6 6 7 9 12 16 19 22 26 31 29 27 25 23 21 19 17 14 13 11 10 9 9 10 10 10
13 12 12 10 7 4 6 6 2 3 3 5 3 7 8 8 7 5 4 5 9 12 12 16 21 24 28 34 33 30 26 23 21 18 16 14 11 10 10 11 12 13 13
13 14 13 12 10 6 5 5 6 2 5 4 4 7 8 8 8 7 2 4 7 11 12 13 17 21 26 32 33 32 30 27 23 20 18 15 13 13 14 15 17 16 16
14 14 14 16 13 9 6 4 6 5 5 4 4 7 8 9 10 9 6 4 5 8 11 13 12 15 21 29 31 33 31 29 27 23 21 19 18 18 20 21 20 19 18
16 15 16 17 15 12 7 5 5 5 6 5 5 5 5 8 12 11 9 7 6 6 9 10 10 12 14 22 31 32 31 29 28 25 23 21 22 25 23 21 21 20 19
15 14 14 17 16 14 8 6 5 4 3 4 4 5 2 4 10 13 11 10 9 8 7 8 9 10 13 15 21 29 32 30 29 27 24 24 25 23 21 20 21 22 20
14 14 14 17 17 14 10 8 6 5 4 2 2 4 5 4 3 3 12 13 12 12 10 9 8 9 10 14 17 20 22 24 24 25 26 23 22 21 21 23 22 21 21
12 13 13 17 19 17 12 10 10 8 5 4 2 2 4 5 6 4 4 9 15 16 14 13 12 11 9 11 15 18 20 22 22 22 22 22 20 20 19 20 18 16 19
12 14 15 17 20 19 15 13 12 11 7 6 5 4 4 3 3 3 5 6 6 12 18 16 16 15 14 13 12 13 15 17 18 17 17 16 16 16 17 15 14 15 16
14 14 15 18 21 21 18 15 15 14 11 10 8 8 8 8 8 7 6 6 7 8 13 18 19 18 19 18 18 16 17 18 18 18 17 16 15 14 15 15 14 14 15
14 14 16 17 21 23 21 18 16 16 14 12 12 11 12 10 9 8 9 7 7 5 9 12 14 18 20 23 24 22 21 20 19 19 18 18 17 15 15 14 14 15 15
13 13 16 18 19 24 25 23 21 18 18 15 14 14 12 11 11 9 10 10 7 5 4 4 6 8 13 18 23 24 25 25 23 22 20 19 19 20 19 19 18 18 18
14 14 15 17 19 22 23 24 24 21 20 19 17 17 16 14 14 13 12 11 10 8 7 6 8 7 9 7 12 21 25 23 25 26 23 22 20 20 21 20 20 20 20
14 15 16 16 18 22 23 24 24 24 23 21 21 20 20 18 18 15 14 13 13 10 10 10 11 10 10 7 9 11 19 23 25 26 25 23 22 21 21 20 21 21 20
14 16 17 18 19 19 23 25 25 25 25 25 23 23 21 21 21 20 17 16 15 16 15 13 12 10 7 8 8 11 13 15 16 16 18 20 19 20 20 20 20 18 17
16 16 18 20 22 23 25 26 26 27 26 25 25 25 27 26 25 21 20 18 17 17 18 18 15 15 13 9 8 7 6 11 12 15 16 19 19 19 20 19 18 18 19
19 20 19 19 23 25 28 29 30 30 31 31 29 29 28 28 27 25 24 23 20 21 19 20 17 15 16 14 13 12 12 11 12 13 13 13 15 17 17 15 16 19 18
14 15 18 22 26 27 27 30 32 32 32 32 32 30 28 29 27 25 26 24 24 24 20 18 18 16 15 13 14 11 14 14 14 13 14 14 15 15 15 16 15 15 14
16 17 17 18 20 24 26 31 28 33 34 33 33 32 31 29 27 31 29 29 27 27 26 22 20 20 19 18 14 14 15 14 16 16 16 16 18 17 16 16 18 17 17
20 19 20 21 22 22 22 25 28 30 32 34 36 34 32 29 31 30 31 30 30 30 29 28 27 25 23 22 18 17 17 18 17 13 16 12 15 15 15 17 18 18 20
26 27 27 27 26 26 25 23 23 24 32 35 35 35 37 34 33 32 29 31 32 33 31 32 33 30 27 24 22 20 19 18 17 19 21 19 16 17 15 23 23 24 24
31 32 31 31 31 31 28 25 25 27 28 28 31 34 36 35 32 32 30 31 33 31 30 32 33 32 30 27 25 23 22 19 19 18 18 20 18 17 17 20 23 22 22
30 32 34 33 34 34 31 29 27 28 31 33 29 28 29 37 40 38 36 31 34 33 29 31 33 33 32 30 31 31 29 27 22 20 19 21 17 15 14 19 22 20 19
Wind_Direction
237 232 243 273 257 241 254 262 248 249 253 242 237 235 220 224 227 223 211 210 211 216 197 195 183 195 197 197 198 195 192 193 187 190 190 195 201 209 209 216 241 264 274
229 207 226 250 247 258 269 250 241 243 262 253 263 270 233 226 233 231 227 220 215 212 199 199 200 199 204 205 204 203 198 198 197 200 201 202 209 219 235 250 266 280 276
223 225 229 232 243 261 239 245 236 247 254 273 272 259 236 219 214 226 216 210 219 221 206 202 204 206 206 206 205 203 202 204 205 207 208 214 221 226 240 259 275 287 287
229 228 223 221 237 248 247 258 259 253 263 304 282 220 205 202 211 217 241 238 228 212 209 209 206 209 210 207 204 202 206 203 205 211 218 224 231 241 258 269 274 286 295
224 228 222 220 222 249 243 256 293 299 274 303 254 183 196 204 217 205 243 226 203 192 197 211 210 211 211 215 215 214 215 214 215 217 221 226 234 247 262 271 277 281 288
234 233 233 222 231 235 237 258 295 302 316 314 198 188 200 207 208 199 188 177 191 194 194 199 209 211 212 213 215 217 221 221 221 221 222 227 241 256 270 275 275 277 277
236 236 231 225 227 231 247 254 303 280 299 318 221 218 214 208 193 193 198 182 175 195 197 202 206 211 219 214 214 216 221 221 223 225 228 240 253 264 276 277 274 273 273
241 234 230 233 229 231 246 270 294 312 296 286 236 230 213 213 203 205 209 213 214 203 204 204 203 207 203 210 214 215 219 222 226 231 238 249 261 274 274 272 271 268 268
240 238 241 226 228 230 242 262 270 298 291 258 264 238 256 217 210 218 212 211 218 216 212 209 209 200 201 200 211 217 220 225 226 230 241 258 268 269 269 273 272 262 258
242 245 244 220 219 226 231 249 254 252 285 313 295 232 239 240 225 225 230 218 216 219 218 218 213 209 209 209 208 208 211 217 225 241 252 254 261 266 268 273 271 256 248
253 244 227 219 215 221 230 240 241 243 253 253 266 271 265 246 236 253 246 225 229 226 224 221 226 226 224 222 220 218 218 219 228 237 246 251 256 262 266 270 265 247 247
258 242 232 224 220 220 225 234 236 243 243 249 256 249 268 267 233 299 265 248 243 243 228 225 224 224 226 227 226 226 225 226 229 232 235 245 249 252 257 260 258 247 244
258 253 239 230 223 220 223 232 237 239 241 243 254 260 263 262 272 278 288 292 287 270 234 232 233 230 230 233 236 231 230 230 231 238 241 243 246 249 249 250 251 253 255
256 252 244 238 233 225 226 232 239 242 250 251 253 260 261 262 263 272 271 282 309 263 270 239 240 243 243 244 242 238 235 228 234 237 238 243 243 246 248 250 250 251 252
255 258 249 243 234 228 232 237 243 248 248 253 252 253 260 262 263 269 271 271 274 270 267 255 241 259 254 251 241 237 237 234 231 244 246 247 247 250 251 253 254 253 253
259 259 257 254 241 236 237 242 245 249 250 253 259 255 254 257 261 268 266 260 258 250 253 251 269 277 255 274 252 237 235 235 235 241 246 247 246 251 249 248 253 255 255
255 254 255 251 250 243 240 245 250 249 256 257 257 261 261 263 263 263 261 258 252 256 253 268 271 267 240 273 261 255 237 240 239 238 242 245 249 247 245 251 256 257 257
272 262 258 254 249 245 240 245 248 249 253 256 257 259 265 268 265 262 256 257 255 253 256 264 266 269 262 267 275 268 240 234 231 232 231 239 241 243 247 253 255 251 255
268 265 259 257 258 254 250 249 251 252 252 254 260 262 265 269 261 257 257 257 256 253 254 259 261 261 259 266 267 269 243 237 226 228 240 242 241 243 248 253 254 251 259
264 261 260 264 259 257 256 258 257 255 255 260 260 263 267 255 255 257 257 258 258 259 253 256 256 258 258 260 257 249 252 246 235 240 243 242 246 249 249 248 253 258 261
291 278 271 266 265 266 264 259 256 259 260 261 263 264 264 249 251 258 254 255 257 258 251 250 252 257 256 250 252 250 255 249 249 241 240 240 250 247 248 243 261 255 250
295 292 290 284 276 271 266 264 264 258 257 259 261 264 262 259 257 256 257 252 257 255 255 250 252 252 253 261 251 247 246 243 249 247 248 245 239 241 243 247 254 256 256
291 291 292 291 287 282 274 268 260 256 255 256 259 259 260 258 261 263 260 253 255 252 251 254 253 252 259 261 259 258 248 247 242 248 247 243 239 239 242 246 251 250 257
284 285 287 288 285 281 277 275 276 270 262 261 258 259 254 256 260 264 262 258 255 252 254 248 251 255 259 257 255 255 256 258 256 252 253 250 248 247 247 257 261 262 264
280 280 280 280 279 278 275 272 272 271 271 269 266 257 254 250 256 260 262 260 255 253 257 255 250 255 254 254 253 252 248 247 256 257 254 252 257 258 256 260 263 262 266
285 282 281 276 273 273 275 275 268 265 266 267 269 267 251 247 229 251 250 249 258 251 253 251 252 250 252 248 247 245 250 249 249 255 256 255 256 250 262 265 266 269 266